TimeEST,TemperatureF,Dew PointF,Humidity,Sea Level PressureIn,VisibilityMPH,Wind Direction,Wind SpeedMPH,Gust SpeedMPH,PrecipitationIn,Events,Conditions,WindDirDegrees,DateUTC
12:15 AM,30.2,24.8,80,30.48,10.0,Calm,Calm,-,N/A,,Clear,0,2013-01-28 05:15:00
12:35 AM,32.0,24.8,75,30.47,10.0,Calm,Calm,-,N/A,,Clear,0,2013-01-28 05:35:00
12:55 AM,32.0,24.8,75,30.47,10.0,Calm,Calm,-,N/A,,Clear,0,2013-01-28 05:55:00
1:15 AM,32.0,24.8,75,30.46,10.0,Calm,Calm,-,N/A,,Clear,0,2013-01-28 06:15:00
1:35 AM,32.0,26.6,80,30.45,10.0,Calm,Calm,-,N/A,,Clear,0,2013-01-28 06:35:00
1:55 AM,33.8,24.8,70,30.45,10.0,Calm,Calm,-,N/A,,Clear,0,2013-01-28 06:55:00
2:15 AM,33.8,24.8,70,30.45,10.0,SSE,3.5,-,N/A,,Clear,150,2013-01-28 07:15:00
2:35 AM,33.8,24.8,70,30.45,10.0,Calm,Calm,-,N/A,,Clear,0,2013-01-28 07:35:00
2:55 AM,33.8,24.8,70,30.44,10.0,Calm,Calm,-,N/A,,Scattered Clouds,0,2013-01-28 07:55:00
3:15 AM,33.8,24.8,70,30.43,10.0,South,3.5,-,N/A,,Scattered Clouds,180,2013-01-28 08:15:00
3:35 AM,33.8,24.8,70,30.42,10.0,South,3.5,-,N/A,Rain,Light Rain,170,2013-01-28 08:35:00
3:55 AM,33.8,26.6,75,30.41,10.0,South,4.6,-,N/A,,Scattered Clouds,170,2013-01-28 08:55:00
4:15 AM,33.8,26.6,75,30.40,10.0,South,3.5,-,N/A,Snow,Light Snow,170,2013-01-28 09:15:00
4:35 AM,33.8,26.6,75,30.40,7.0,South,5.8,-,N/A,Rain,Light Rain,180,2013-01-28 09:35:00
4:55 AM,33.8,28.4,81,30.40,5.0,South,5.8,-,N/A,,Overcast,180,2013-01-28 09:55:00
5:15 AM,33.8,30.2,87,30.39,7.0,South,6.9,-,N/A,,Overcast,170,2013-01-28 10:15:00
5:35 AM,33.8,30.2,87,30.39,5.0,South,5.8,-,N/A,,Overcast,180,2013-01-28 10:35:00
5:55 AM,33.8,32.0,93,30.40,4.0,SSW,6.9,-,N/A,,Overcast,200,2013-01-28 10:55:00
6:15 AM,33.8,32.0,93,30.39,3.0,South,6.9,-,0.02,,Overcast,180,2013-01-28 11:15:00
6:35 AM,33.8,33.8,100,30.39,4.0,South,4.6,-,0.03,,Overcast,180,2013-01-28 11:35:00
6:55 AM,33.8,33.8,100,30.39,3.0,South,6.9,-,0.05,Rain,Light Rain,190,2013-01-28 11:55:00
7:15 AM,33.8,33.8,100,30.38,3.0,South,6.9,-,0.02,Rain,Rain,180,2013-01-28 12:15:00
7:35 AM,33.8,33.8,100,30.37,3.0,South,8.1,-,0.03,,Overcast,180,2013-01-28 12:35:00
7:55 AM,33.8,33.8,100,30.38,3.0,South,6.9,-,0.05,,Overcast,190,2013-01-28 12:55:00
8:15 AM,33.8,33.8,100,30.37,2.5,South,5.8,-,0.01,,Overcast,190,2013-01-28 13:15:00
8:35 AM,33.8,33.8,100,30.37,3.0,South,8.1,-,0.02,Rain,Light Rain,190,2013-01-28 13:35:00
8:55 AM,33.8,33.8,100,30.35,4.0,South,9.2,-,0.02,,Overcast,190,2013-01-28 13:55:00
9:15 AM,33.8,33.8,100,30.35,4.0,South,4.6,-,N/A,,Drizzle,190,2013-01-28 14:15:00
9:35 AM,33.8,33.8,100,30.35,4.0,SSW,8.1,-,N/A,,Overcast,200,2013-01-28 14:35:00
9:55 AM,35.6,35.6,100,30.35,3.0,South,5.8,-,N/A,Rain,Rain,190,2013-01-28 14:55:00
10:15 AM,35.6,35.6,100,30.33,4.0,SSW,8.1,-,N/A,,Overcast,200,2013-01-28 15:15:00
10:35 AM,35.6,35.6,100,30.33,4.0,South,10.4,-,N/A,,Overcast,190,2013-01-28 15:35:00
10:55 AM,35.6,35.6,100,30.32,4.0,SSW,8.1,-,N/A,,Overcast,200,2013-01-28 15:55:00
11:15 AM,37.4,37.4,100,30.31,4.0,SSW,9.2,-,N/A,,Overcast,210,2013-01-28 16:15:00
11:35 AM,37.4,37.4,100,30.28,4.0,South,10.4,-,N/A,,Overcast,190,2013-01-28 16:35:00
12:35 PM,37.4,37.4,100,30.24,4.0,South,10.4,16.1,N/A,,Overcast,190,2013-01-28 17:35:00
12:55 PM,39.2,37.4,93,30.22,4.0,South,9.2,16.1,N/A,,Overcast,180,2013-01-28 17:55:00
1:15 PM,39.2,39.2,100,30.20,4.0,SSW,11.5,-,N/A,,Overcast,200,2013-01-28 18:15:00
1:35 PM,39.2,39.2,100,30.18,4.0,SSW,9.2,-,N/A,,Overcast,210,2013-01-28 18:35:00
1:55 PM,42.8,41.0,93,30.17,5.0,SSW,6.9,-,N/A,,Overcast,210,2013-01-28 18:55:00
2:15 PM,42.8,41.0,93,30.16,5.0,SSW,8.1,17.3,N/A,,Mostly Cloudy,200,2013-01-28 19:15:00
2:35 PM,44.6,42.8,93,30.15,5.0,South,8.1,-,N/A,,Mostly Cloudy,190,2013-01-28 19:35:00
2:55 PM,46.4,42.8,87,30.15,7.0,SSW,9.2,-,N/A,,Scattered Clouds,210,2013-01-28 19:55:00
3:15 PM,46.4,41.0,81,30.14,7.0,SSW,10.4,16.1,N/A,,Scattered Clouds,210,2013-01-28 20:15:00
3:35 PM,48.2,41.0,76,30.14,7.0,SSW,8.1,16.1,N/A,,Clear,200,2013-01-28 20:35:00
3:55 PM,48.2,41.0,76,30.14,10.0,SSW,8.1,18.4,N/A,,Clear,210,2013-01-28 20:55:00
4:15 PM,48.2,41.0,76,30.14,7.0,SSW,10.4,-,N/A,,Clear,210,2013-01-28 21:15:00
4:35 PM,48.2,41.0,76,30.13,10.0,SSW,9.2,-,N/A,,Clear,200,2013-01-28 21:35:00
4:55 PM,46.4,41.0,81,30.12,7.0,SW,11.5,-,N/A,,Scattered Clouds,220,2013-01-28 21:55:00
5:15 PM,48.2,41.0,76,30.12,10.0,SSW,10.4,-,N/A,,Overcast,210,2013-01-28 22:15:00
5:35 PM,48.2,41.0,76,30.12,10.0,SSW,10.4,-,N/A,,Overcast,210,2013-01-28 22:35:00
5:55 PM,48.2,41.0,76,30.12,10.0,SW,6.9,-,N/A,,Overcast,220,2013-01-28 22:55:00
6:15 PM,48.2,41.0,76,30.12,10.0,SW,6.9,-,N/A,,Overcast,220,2013-01-28 23:15:00
6:35 PM,48.2,41.0,76,30.11,10.0,SW,5.8,-,N/A,,Mostly Cloudy,220,2013-01-28 23:35:00
6:55 PM,46.4,41.0,81,30.11,10.0,SSW,5.8,-,N/A,,Mostly Cloudy,210,2013-01-28 23:55:00
7:15 PM,46.4,41.0,81,30.10,10.0,SSW,3.5,-,N/A,,Mostly Cloudy,200,2013-01-29 00:15:00
7:35 PM,46.4,41.0,81,30.11,10.0,SW,3.5,-,N/A,,Scattered Clouds,230,2013-01-29 00:35:00
7:55 PM,42.8,39.2,87,30.10,10.0,SW,8.1,-,N/A,,Clear,220,2013-01-29 00:55:00
8:15 PM,44.6,39.2,81,30.09,10.0,SW,6.9,-,N/A,,Clear,220,2013-01-29 01:15:00
8:35 PM,46.4,41.0,81,30.08,10.0,SW,8.1,-,N/A,,Scattered Clouds,220,2013-01-29 01:35:00
8:55 PM,46.4,41.0,81,30.08,10.0,SW,6.9,-,N/A,,Scattered Clouds,220,2013-01-29 01:55:00
9:15 PM,46.4,41.0,81,30.08,10.0,SSW,3.5,-,N/A,,Scattered Clouds,210,2013-01-29 02:15:00
9:35 PM,46.4,41.0,81,30.08,10.0,SSW,4.6,-,N/A,,Mostly Cloudy,210,2013-01-29 02:35:00
9:55 PM,44.6,41.0,87,30.08,10.0,South,3.5,-,N/A,,Scattered Clouds,190,2013-01-29 02:55:00
10:15 PM,44.6,39.2,81,30.09,10.0,Calm,Calm,-,N/A,,Clear,0,2013-01-29 03:15:00
10:35 PM,48.2,42.8,82,30.09,10.0,South,3.5,-,N/A,,Clear,180,2013-01-29 03:35:00
10:55 PM,48.2,42.8,82,30.08,10.0,South,4.6,-,N/A,,Clear,170,2013-01-29 03:55:00
11:15 PM,48.2,42.8,82,30.08,10.0,South,3.5,-,N/A,,Clear,170,2013-01-29 04:15:00
11:55 PM,48.2,44.6,87,30.07,10.0,South,8.1,-,N/A,,Clear,190,2013-01-29 04:55:00